Denver Centennial, CO

2:21 PM MDT on June 26, 2017 (GMT -0600)
Centennial

Weather History for KAPA - February, 2014

Change the Weather History Date:

Wednesday, February 12, 2014

  Actual Average Record
Temperature  
Mean Temperature 33 °F -  
Max Temperature 44 °F 43 °F 61 °F (2015)
Min Temperature 21 °F 20 °F -8 °F (2004)
Degree Days  
Heating Degree Days 32    
Month to date heating degree days 569  
Moisture  
Dew Point 21 °F    
Average Humidity 65    
Maximum Humidity 92    
Minimum Humidity 37    
Precipitation  
Precipitation 0.00 in - - ()
Month to date precipitation 0.05  
Year to date precipitation 0.81  
Sea Level Pressure  
Sea Level Pressure 30.01 in    
Wind  
Wind Speed 10 mph (SSE)    
Max Wind Speed 24 mph    
Max Gust Speed 28 mph    
Visibility 10 miles    
Events      
Averages and records for this station are not official NWS values.
T = Trace of Precipitation, MM = Missing Value Source: NWS Daily Summary

Daily Weather History Graph

Daily Weather History Graph

Search for Another Location

Airport or City:

Trip Planner

Search our weather history database for the weather conditions in past years. The results will help you decide how hot, cold, wet, or windy it might be!

Date:

Astronomy

Feb. 12, 2014 Rise Set
Actual Time 6:55 AM MST 5:32 PM MST
Civil Twilight 6:27 AM MST 6:00 PM MST
Nautical Twilight 5:55 AM MST 6:31 PM MST
Astronomical Twilight 5:24 AM MST 7:03 PM MST
Moon 3:48 PM MST (2/12) 5:13 AM MST (2/12)
Length of Visible Light 11h 32m
Length of Day
10h 37m
Waxing Gibbous, 96% of the Moon is Illuminated
Feb 12
Waxing Gibbous
Feb 14
Full
Feb 22
Last Quarter
Mar 1
New
Mar 8
First Quarter

Hourly Weather History & Observations

Time (MST) Temp. Windchill Dew Point Humidity Pressure Visibility Wind Dir Wind Speed Gust Speed Precip Events Conditions
12:53 AM 35.1 °F 25.9 °F 12.9 °F 40% 30.09 in 10.0 mi NW 13.8 mph 23.0 mph N/A   Partly Cloudy
1:32 AM 26.1 °F 14.5 °F 21.0 °F 81% 30.11 in 10.0 mi NE 13.8 mph 23.0 mph N/A   Partly Cloudy
1:53 AM 25.0 °F 14.8 °F 21.0 °F 85% 30.19 in 10.0 mi NE 10.4 mph - N/A   Partly Cloudy
2:53 AM 23.0 °F - 19.9 °F 88% 30.22 in 10.0 mi Calm Calm - N/A   Clear
3:53 AM 21.9 °F 13.4 °F 19.0 °F 89% 30.21 in 10.0 mi SSW 6.9 mph - N/A   Clear
4:53 AM 23.0 °F 14.7 °F 19.0 °F 85% 30.19 in 10.0 mi South 6.9 mph - N/A   Clear
5:53 AM 21.9 °F 11.0 °F 18.0 °F 85% 30.16 in 10.0 mi South 10.4 mph - N/A   Clear
6:53 AM 23.0 °F 12.4 °F 18.0 °F 81% 30.16 in 10.0 mi South 10.4 mph - N/A   Scattered Clouds
7:53 AM 24.1 °F 11.5 °F 18.0 °F 77% 30.15 in 10.0 mi South 15.0 mph - N/A   Mostly Cloudy
8:53 AM 28.9 °F 22.8 °F 19.0 °F 67% 30.12 in 10.0 mi SSE 5.8 mph - N/A   Mostly Cloudy
9:53 AM 33.1 °F 24.9 °F 21.0 °F 61% 30.06 in 10.0 mi South 10.4 mph - N/A   Mostly Cloudy
10:53 AM 39.9 °F 33.4 °F 15.1 °F 36% 30.01 in 10.0 mi South 10.4 mph - N/A   Mostly Cloudy
11:53 AM 37.9 °F 30.5 °F 19.9 °F 48% 29.95 in 10.0 mi South 11.5 mph - N/A   Mostly Cloudy
12:53 PM 37.0 °F 28.9 °F 21.0 °F 52% 29.90 in 10.0 mi SSE 12.7 mph - N/A   Mostly Cloudy
1:53 PM 37.0 °F 29.3 °F 21.9 °F 54% 29.89 in 10.0 mi ESE 11.5 mph - N/A   Overcast
2:53 PM 36.0 °F 28.5 °F 24.1 °F 62% 29.88 in 10.0 mi SE 10.4 mph - N/A   Mostly Cloudy
3:53 PM 39.0 °F 31.8 °F 23.0 °F 53% 29.88 in 10.0 mi SSE 11.5 mph - N/A   Mostly Cloudy
4:53 PM 39.0 °F 34.0 °F 25.0 °F 57% 29.88 in 10.0 mi ESE 6.9 mph - N/A   Mostly Cloudy
5:53 PM 39.9 °F 33.9 °F 23.0 °F 51% 29.91 in 10.0 mi SE 9.2 mph - N/A   Mostly Cloudy
6:53 PM 39.0 °F 31.4 °F 23.0 °F 53% 29.91 in 10.0 mi SSE 12.7 mph - N/A   Mostly Cloudy
7:53 PM 34.0 °F 28.0 °F 24.1 °F 67% 29.92 in 10.0 mi SE 6.9 mph - N/A   Mostly Cloudy
8:53 PM 39.0 °F 32.8 °F 23.0 °F 53% 29.89 in 10.0 mi WSW 9.2 mph - N/A   Mostly Cloudy
9:53 PM 44.1 °F 40.1 °F 23.0 °F 43% 29.86 in 10.0 mi WNW 6.9 mph - N/A   Mostly Cloudy
10:53 PM 37.9 °F 33.5 °F 23.0 °F 55% 29.86 in 10.0 mi WSW 5.8 mph - N/A   Scattered Clouds
11:53 PM 32.0 °F 24.2 °F 21.9 °F 66% 29.91 in 10.0 mi SE 9.2 mph - N/A   Scattered Clouds